Date,TemperatureHighF,TemperatureAvgF,TemperatureLowF,DewpointHighF,DewpointAvgF,DewpointLowF,HumidityHigh,HumidityAvg,HumidityLow,PressureMaxIn,PressureMinIn,WindSpeedMaxMPH,WindSpeedAvgMPH,GustSpeedMaxMPH,PrecipitationSumIn
2013-1-1,27.7,20.0,11.7,26.4,15.9,8.4,95,84,74,30.23,30.07,14,5,16,0.00
2013-1-2,23.7,16.2,7.6,15.2,10.9,5.1,92,80,59,30.27,30.19,15,4,15,0.00
2013-1-3,33.9,26.7,18.8,28.0,21.8,12.9,88,82,77,30.35,30.18,17,6,17,0.01
2013-1-4,34.9,26.3,15.0,25.3,20.7,12.0,92,79,66,30.38,30.28,19,5,21,0.00
2013-1-5,39.4,32.1,23.6,31.2,26.6,19.0,88,80,69,30.29,30.04,18,6,19,0.00
2013-1-6,36.9,29.6,19.3,32.0,24.7,17.4,92,82,75,30.36,29.99,24,7,25,0.00
2013-1-7,36.6,27.7,18.9,27.6,23.5,17.0,94,85,68,30.39,30.15,24,8,25,0.00
2013-1-8,43.1,35.2,27.5,35.4,29.9,24.4,90,81,67,30.20,30.10,18,7,18,0.00
2013-1-9,50.9,42.7,31.1,40.0,35.4,27.9,91,76,55,30.46,30.11,18,4,22,0.01
2013-1-10,53.2,40.3,31.4,52.6,37.5,28.5,98,90,77,30.45,29.78,19,7,21,0.20
2013-1-11,57.8,54.2,50.5,57.2,50.7,47.5,99,88,76,29.85,29.71,27,11,28,0.15
2013-1-12,58.7,48.7,31.5,52.4,44.9,29.9,95,87,74,29.91,29.74,26,8,26,0.94
2013-1-13,31.5,24.4,17.0,30.1,21.6,12.9,95,89,82,30.32,29.79,24,8,24,0.37
2013-1-14,24.8,19.3,14.7,18.3,14.9,11.0,87,82,74,30.48,30.32,12,3,15,0.00
2013-1-15,28.5,23.3,16.6,23.2,19.2,14.0,90,84,76,30.42,30.10,14,4,14,0.00
2013-1-16,37.9,30.1,20.3,26.5,22.6,18.1,94,75,49,30.11,29.96,18,4,20,0.01
2013-1-17,37.5,32.4,23.7,30.7,25.5,19.9,90,76,60,30.44,30.08,18,5,20,0.00
2013-1-18,40.9,32.8,22.4,31.9,26.1,20.2,93,77,63,30.46,30.08,33,11,33,0.00
2013-1-19,53.1,44.8,37.9,38.9,34.5,30.3,77,67,56,30.09,29.84,29,12,31,0.00
2013-1-20,40.7,25.1,19.5,31.9,16.0,11.1,81,68,55,30.30,30.01,21,7,23,0.00
2013-1-21,19.5,14.4,8.0,15.2,3.9,-2.3,83,63,49,30.36,30.22,26,10,32,0.00
2013-1-22,16.6,11.1,5.0,4.2,0.2,-2.4,84,61,46,30.45,30.35,19,5,19,0.00
2013-1-23,34.6,24.0,12.1,22.8,13.4,3.3,76,64,52,30.38,30.10,23,6,23,0.00
2013-1-24,25.2,19.0,9.7,13.4,8.0,1.4,74,62,48,30.60,30.27,22,7,26,0.00
2013-1-25,36.3,28.5,21.9,23.8,17.6,6.5,79,64,47,30.33,30.04,22,7,23,0.00
2013-1-26,33.1,25.3,16.5,21.1,16.1,10.3,80,68,49,30.38,30.16,15,4,15,0.00
2013-1-27,42.1,31.5,21.7,40.9,28.3,18.0,97,88,77,30.34,29.96,23,10,25,0.15
2013-1-28,57.9,52.2,42.2,57.3,51.2,41.0,100,96,94,29.97,29.83,23,10,25,0.04
2013-1-29,62.3,58.5,51.9,59.0,56.2,51.0,97,93,86,29.84,29.36,29,12,29,0.38
2013-1-30,51.9,39.5,24.6,50.9,36.3,16.5,98,88,69,29.78,29.27,33,13,34,1.18
2013-1-31,28.7,20.9,7.9,21.6,13.7,-0.6,85,73,64,30.29,29.77,28,13,30,0.00
2013-2-1,21.9,14.1,5.4,17.1,5.8,-0.4,82,69,55,30.46,30.22,25,9,26,0.00
2013-2-2,31.9,25.2,19.4,25.7,19.5,14.1,92,79,72,30.22,30.02,22,7,25,0.00
2013-2-3,31.2,25.4,19.0,24.6,19.0,14.2,95,77,55,30.12,29.97,24,5,27,0.00
2013-2-4,49.2,33.6,23.3,35.0,26.4,19.6,92,76,55,30.03,29.75,25,8,25,0.00
2013-2-5,44.5,33.7,25.0,36.3,29.0,22.8,95,83,70,30.08,29.82,21,5,25,0.00
2013-2-6,43.7,35.1,25.3,34.4,30.0,23.1,95,82,64,30.22,30.07,16,4,17,0.00
2013-2-7,56.4,40.5,31.8,46.2,36.3,28.9,95,86,59,30.08,29.80,18,6,21,0.21
2013-2-8,36.3,31.5,28.2,34.6,27.7,24.6,94,86,81,30.36,29.93,22,6,22,0.00
2013-2-9,40.0,33.7,29.6,33.7,28.5,25.0,85,81,75,30.36,30.03,20,8,22,0.00
2013-2-10,53.2,44.4,36.3,50.9,41.1,31.0,96,89,54,30.05,29.57,45,14,45,0.74
2013-2-11,50.4,38.8,31.2,35.7,29.8,26.3,86,70,54,30.10,29.64,35,10,36,0.00
2013-2-12,40.3,33.1,26.8,32.1,28.5,24.5,93,84,69,30.12,29.90,13,2,13,0.00
2013-2-13,49.4,38.4,30.1,33.1,30.4,28.1,95,75,47,29.90,29.74,19,3,21,0.00
2013-2-14,48.5,40.1,32.5,36.8,32.9,28.9,90,76,60,29.99,29.74,22,7,26,0.00
2013-2-15,35.9,31.2,24.6,31.5,22.5,16.0,89,71,48,30.19,29.99,20,6,21,0.00
2013-2-16,29.9,23.6,17.4,17.4,14.2,11.6,81,68,48,30.21,30.12,18,6,22,0.00
2013-2-17,36.2,26.8,15.3,25.3,19.2,10.8,89,73,59,30.22,29.97,24,8,24,0.00
2013-2-18,53.7,41.9,31.4,46.1,36.5,24.6,94,82,71,29.97,29.49,40,16,40,0.41
2013-2-19,31.4,24.5,19.6,26.9,17.0,10.5,85,73,65,30.23,29.75,33,14,33,0.00
2013-2-20,24.5,19.5,10.8,18.9,11.9,6.0,85,72,62,30.40,30.22,15,5,20,0.00
2013-2-21,31.3,24.7,18.9,30.5,22.0,15.7,97,90,81,30.34,29.82,24,8,26,0.01
2013-2-22,35.3,31.4,26.7,34.8,29.4,21.6,98,93,80,30.01,29.78,20,5,23,0.33
2013-2-23,29.9,24.7,19.5,22.1,19.7,16.1,90,81,69,30.01,29.95,17,4,17,0.01
2013-2-24,38.8,27.3,13.7,27.8,21.8,11.4,95,81,58,30.14,29.99,10,2,11,0.00
2013-2-25,42.4,34.2,25.3,34.7,29.4,23.0,93,83,68,30.09,29.71,21,6,23,0.01
2013-2-26,38.1,34.7,32.6,37.3,33.3,30.6,98,95,85,29.70,29.33,25,7,28,1.01
2013-2-27,33.1,32.0,31.4,32.1,30.9,29.7,98,96,92,29.77,29.52,22,9,23,0.05
2013-2-28,34.9,32.9,31.8,32.4,31.2,30.0,96,94,89,30.03,29.76,15,6,17,0.02
2013-3-1,32.1,29.9,27.0,31.0,28.0,24.6,96,93,89,30.12,29.99,17,6,20,0.05
2013-3-2,30.7,27.0,22.4,24.6,21.5,15.4,90,80,64,30.18,30.11,20,5,20,0.00
2013-3-3,35.5,26.9,18.9,24.6,17.9,14.5,87,70,46,30.17,30.05,10,2,12,0.00
2013-3-4,36.1,32.8,28.9,30.6,27.2,23.0,86,80,75,30.08,29.83,23,8,23,0.00
2013-3-5,36.7,32.5,28.9,33.2,30.0,26.9,97,91,81,29.95,29.75,30,9,32,0.03
2013-3-6,31.7,29.0,27.2,27.4,25.3,24.1,94,86,79,30.32,29.95,24,8,25,0.00
2013-3-7,35.5,31.2,27.3,29.5,26.7,24.4,92,84,72,30.40,30.31,9,2,10,0.03
2013-3-8,46.0,36.3,27.4,38.0,31.4,25.4,94,83,68,30.44,30.23,19,5,20,0.00
2013-3-9,54.9,44.7,37.2,45.0,37.3,31.9,86,76,65,30.23,29.79,24,11,26,0.04
2013-3-10,60.7,53.0,49.0,52.2,46.1,39.1,96,78,63,29.79,29.57,27,11,33,0.23
2013-3-11,49.2,37.3,32.9,48.0,34.8,29.1,100,91,84,29.91,29.59,23,9,26,0.04
2013-3-12,42.7,34.5,29.0,33.8,28.0,23.0,92,77,63,30.11,29.90,27,10,30,0.00
2013-3-13,35.5,28.7,24.1,22.5,20.1,17.0,82,70,53,30.37,30.10,25,9,25,0.00
2013-3-14,40.2,32.1,22.9,31.8,26.1,20.4,92,79,62,30.36,30.09,23,6,23,0.00
2013-3-15,59.2,44.1,29.6,47.6,38.0,27.8,100,80,58,30.09,29.62,17,5,18,0.00
2013-3-16,57.9,40.9,33.9,49.5,36.8,30.5,96,86,72,30.03,29.55,19,6,19,0.00
2013-3-17,37.7,34.0,31.2,32.3,29.7,26.2,94,84,78,30.09,29.81,19,9,20,0.23
2013-3-18,42.6,36.7,29.3,37.3,33.6,23.9,97,89,67,29.93,29.62,23,8,26,0.04
2013-3-19,42.5,32.9,26.4,25.0,21.2,14.9,83,63,33,30.14,29.93,25,9,27,0.00
2013-3-20,32.5,27.0,21.8,24.1,14.5,7.7,79,60,41,30.18,30.07,25,10,30,0.00
2013-3-21,34.9,25.2,16.9,19.9,13.8,9.0,84,63,42,30.10,29.99,15,3,15,0.00
2013-3-22,41.0,31.4,19.8,28.1,21.8,17.3,93,69,45,30.06,29.97,18,2,19,0.00
2013-3-23,50.4,41.2,34.4,33.3,28.3,24.4,79,61,40,30.03,29.82,18,5,21,0.00
2013-3-24,38.0,31.5,29.4,31.8,29.7,27.8,97,93,68,29.87,29.46,22,8,27,0.05
2013-3-25,32.4,29.9,27.0,29.6,28.1,26.0,97,93,85,30.09,29.64,22,8,23,0.16
2013-3-26,37.2,32.9,29.7,29.6,27.3,25.9,89,80,68,30.29,30.09,17,6,19,0.14
2013-3-27,40.6,34.1,27.2,28.9,25.9,23.3,89,72,52,30.36,30.27,13,4,14,0.00
2013-3-28,48.9,36.1,22.5,36.9,28.5,20.8,96,76,48,30.37,30.25,11,1,11,0.00
2013-3-29,55.9,44.7,33.6,41.7,35.5,30.6,92,72,48,30.27,30.16,13,2,14,0.00
2013-3-30,54.1,46.4,34.4,46.2,40.4,31.5,92,80,61,30.19,29.87,20,5,21,0.03
2013-3-31,60.0,50.1,44.0,49.7,43.9,33.3,96,80,61,29.88,29.77,21,6,22,0.00
2013-4-1,44.9,39.5,34.4,33.6,24.4,18.0,75,56,37,30.18,29.88,21,7,21,0.00
2013-4-2,46.5,36.9,27.4,21.4,19.0,14.6,71,50,28,30.31,30.18,16,4,18,0.00
2013-4-3,49.1,39.3,27.9,27.6,23.5,19.4,76,54,35,30.38,30.24,17,5,20,0.00
2013-4-4,59.2,45.0,30.7,33.9,24.9,20.2,80,49,23,30.25,29.97,12,2,13,0.00
2013-4-5,62.5,49.9,40.6,36.6,31.9,27.6,78,52,29,30.11,29.98,15,4,17,0.00
2013-4-6,70.5,57.2,42.1,45.0,38.1,28.0,67,50,33,30.04,29.67,37,15,40,0.00
2013-4-7,74.3,63.3,49.3,54.6,46.1,41.0,90,56,32,29.88,29.71,28,5,33,0.07
2013-4-8,72.5,64.1,56.6,62.0,57.2,53.3,92,79,64,29.85,29.68,25,9,26,0.00
2013-4-9,74.9,68.0,60.1,63.3,60.0,55.4,86,76,62,29.85,29.78,33,9,40,0.00
2013-4-10,78.3,66.1,51.2,68.0,61.5,49.6,95,86,62,29.78,29.55,26,9,29,0.78
2013-4-11,59.7,49.0,39.4,59.6,46.5,33.3,100,92,78,29.70,29.51,23,7,25,0.28
2013-4-12,43.6,40.3,36.3,35.9,33.9,31.0,83,78,68,29.94,29.64,24,9,29,0.01
2013-4-13,54.3,45.6,39.1,42.9,36.3,32.9,82,71,52,30.01,29.90,24,8,27,0.00
2013-4-14,73.5,59.9,45.1,53.5,46.9,40.1,84,64,42,29.95,29.63,29,12,34,0.07
2013-4-15,68.4,59.4,51.5,62.5,55.0,48.6,94,86,69,29.88,29.71,24,10,28,0.25
2013-4-16,51.0,47.2,44.5,48.6,45.3,43.0,97,93,85,30.13,29.81,19,7,22,1.39
2013-4-17,79.2,60.4,45.2,71.1,56.8,43.4,98,89,71,30.11,29.67,24,9,24,0.14
2013-4-18,72.5,60.7,42.2,99.9,58.5,37.6,98,89,77,29.67,29.49,31,5,32,2.08
2013-4-19,43.4,39.7,36.9,37.5,32.5,29.4,84,75,67,30.00,29.60,31,12,33,0.00
2013-4-20,48.6,40.5,33.7,35.3,31.2,28.0,84,70,47,30.35,30.00,13,4,14,0.00
2013-4-21,56.4,45.7,36.2,41.7,35.8,30.3,82,69,47,30.44,30.26,21,7,21,0.00
2013-4-22,67.6,55.0,40.0,48.9,42.3,34.9,85,64,41,30.26,29.99,20,5,21,0.00
2013-4-23,58.9,53.8,41.0,56.4,48.7,39.4,95,84,71,30.00,29.76,20,7,20,0.72
2013-4-24,48.2,42.0,36.7,39.4,35.8,32.8,95,80,57,30.19,29.87,19,7,22,0.21
2013-4-25,56.3,47.5,39.2,39.1,34.0,28.8,81,61,38,30.29,30.16,20,6,22,0.00
2013-4-26,60.8,52.1,41.6,47.8,41.8,35.3,80,68,53,30.35,30.24,22,6,22,0.00
2013-4-27,56.2,51.9,47.4,52.5,48.8,44.8,98,90,70,30.25,29.86,17,4,17,0.41
2013-4-28,59.1,55.2,53.1,55.4,53.6,51.6,98,95,87,29.87,29.79,17,3,17,0.15
2013-4-29,72.2,60.5,44.7,61.2,54.6,43.6,98,82,63,29.91,29.76,21,8,24,0.00
2013-4-30,81.5,69.2,56.3,66.4,59.7,53.3,91,73,46,29.90,29.77,20,9,23,0.00
2013-5-1,80.7,69.9,54.8,61.3,58.1,52.8,95,68,45,30.04,29.90,18,4,18,0.00
2013-5-2,75.7,64.6,52.6,66.7,60.3,50.3,100,87,67,30.06,29.94,20,2,20,0.81
2013-5-3,69.7,59.4,48.2,61.7,55.1,46.8,98,86,72,29.99,29.73,33,8,39,0.19
2013-5-4,57.9,53.0,49.5,55.0,51.4,48.1,96,94,90,29.96,29.78,19,5,22,0.46
2013-5-5,60.6,55.1,50.1,56.6,53.2,49.0,98,94,84,29.94,29.84,20,6,22,0.11
2013-5-6,65.7,58.7,52.6,58.9,54.9,51.5,97,88,77,29.93,29.85,14,3,15,0.02
2013-5-7,76.1,65.3,57.3,61.5,55.8,49.1,96,75,44,29.97,29.89,17,2,17,0.00
2013-5-8,79.5,66.7,53.2,61.4,55.0,48.3,98,71,35,29.98,29.90,10,1,13,0.00
2013-5-9,65.5,61.9,57.3,63.4,59.6,54.3,98,93,76,29.93,29.77,13,3,15,1.34
2013-5-10,67.1,60.0,51.8,60.8,56.6,48.9,95,89,75,29.92,29.76,17,4,19,0.01
2013-5-11,64.3,54.5,47.2,55.2,44.7,33.8,96,73,37,30.06,29.88,25,6,28,0.01
2013-5-12,57.4,49.1,40.4,39.1,32.9,26.1,81,56,34,30.14,30.06,21,5,24,0.00
2013-5-13,67.0,55.7,42.8,44.7,38.3,33.0,80,55,31,30.17,30.01,16,4,17,0.00
2013-5-14,86.4,69.9,53.0,64.3,54.2,41.6,70,59,43,30.02,29.70,22,8,22,0.00
2013-5-15,86.3,77.1,68.3,67.3,60.1,53.8,72,56,48,29.83,29.72,26,9,29,0.00
2013-5-16,79.3,72.1,64.6,65.4,63.0,55.2,90,74,48,29.89,29.75,20,4,22,0.00
2013-5-17,77.0,69.1,62.4,66.1,63.4,60.5,97,83,64,29.93,29.86,17,4,18,0.00
2013-5-18,79.6,70.6,61.8,66.9,63.9,60.3,97,81,62,29.96,29.85,16,4,17,0.00
2013-5-19,86.3,75.1,61.9,74.5,68.4,60.6,97,81,65,29.87,29.68,27,7,27,0.00
2013-5-20,83.7,75.6,66.4,71.0,67.3,60.6,87,76,55,29.83,29.63,48,8,48,0.02
2013-5-21,80.2,72.1,63.8,70.2,65.9,61.4,95,82,62,29.74,29.63,25,10,28,0.29
2013-5-22,75.5,67.8,62.7,64.5,60.6,55.8,93,79,54,29.77,29.59,21,7,23,0.00
2013-5-23,62.7,57.7,47.8,58.0,52.8,42.8,91,84,78,30.19,29.76,18,6,24,0.00
2013-5-24,69.8,54.5,40.7,49.1,40.8,33.8,88,64,27,30.36,30.19,16,3,16,0.00
2013-5-25,58.2,53.4,48.7,53.6,47.2,41.0,91,80,64,30.35,30.16,16,4,18,0.17
2013-5-26,63.7,56.8,51.1,60.5,54.6,47.6,97,93,85,30.22,29.98,19,6,19,0.46
2013-5-27,78.5,65.6,60.3,70.0,62.3,58.5,97,90,72,30.01,29.69,31,4,31,1.39
2013-5-28,81.8,72.2,62.4,72.1,66.0,61.4,97,82,67,29.86,29.73,25,9,26,0.00
2013-5-29,83.6,75.1,64.0,72.4,66.6,60.6,90,75,64,29.90,29.81,25,8,25,0.00
2013-5-30,83.1,75.2,66.2,72.8,68.1,63.1,94,79,64,29.88,29.76,40,11,40,0.46
2013-5-31,77.1,70.5,62.7,72.8,67.0,60.8,96,89,78,29.84,29.71,28,8,33,0.68
2013-6-1,72.7,66.9,63.5,66.9,63.4,58.6,95,89,75,29.81,29.64,32,10,32,0.31
2013-6-2,65.7,61.8,57.0,60.6,57.9,54.4,94,88,78,29.97,29.77,14,4,17,0.00
2013-6-3,66.8,59.2,53.0,54.5,50.7,46.8,95,75,53,30.06,29.96,12,2,13,0.01
2013-6-4,72.8,63.1,52.2,60.2,55.2,49.6,95,77,59,30.06,29.97,15,3,15,0.00
2013-6-5,81.7,70.1,57.4,66.1,60.4,55.6,95,74,47,29.99,29.78,10,1,12,0.00
2013-6-6,80.1,71.0,65.5,66.3,62.0,56.6,93,75,52,29.79,29.72,18,3,19,0.00
2013-6-7,74.1,65.5,57.5,63.3,58.0,52.6,95,78,61,29.83,29.76,15,3,15,0.28
2013-6-8,79.2,68.2,54.3,62.5,58.2,52.5,96,73,47,29.92,29.83,15,2,16,0.00
2013-6-9,79.8,70.2,62.3,65.7,61.6,55.8,95,76,45,29.92,29.72,20,6,23,0.01
2013-6-10,77.5,68.9,62.5,65.4,62.5,60.7,96,81,60,29.85,29.69,16,4,17,0.01
2013-6-11,84.2,74.8,61.1,75.1,67.6,58.8,95,79,62,29.91,29.76,21,4,21,0.00
2013-6-12,91.0,83.9,76.2,77.1,73.4,71.0,85,72,58,29.85,29.58,25,7,26,0.00
2013-6-13,84.9,75.8,66.4,72.3,61.7,54.3,92,64,40,29.91,29.59,25,6,25,0.00
2013-6-14,81.8,70.6,58.5,60.7,56.6,51.7,86,63,38,30.04,29.88,11,2,12,0.00
2013-6-15,80.7,73.0,63.6,70.6,63.5,57.4,94,73,56,30.03,29.84,30,4,30,0.39
2013-6-16,80.0,71.7,66.0,73.2,68.6,64.4,97,90,78,29.98,29.85,18,4,18,0.42
2013-6-17,85.7,75.0,66.9,74.7,69.7,63.4,98,85,57,29.90,29.79,20,2,20,0.01
2013-6-18,84.8,71.3,64.7,72.1,65.0,55.6,95,82,51,29.92,29.81,19,3,20,0.18
2013-6-19,82.4,71.7,59.3,69.5,64.5,56.6,92,79,56,30.01,29.92,12,2,12,0.00
2013-6-20,87.3,76.9,65.7,72.0,66.5,61.0,97,73,43,30.08,30.00,14,4,15,0.00
2013-6-21,89.2,79.6,69.6,74.9,69.7,65.6,88,73,54,30.05,29.91,21,5,21,0.00
2013-6-22,86.1,74.5,68.4,76.7,69.6,66.0,95,85,65,30.04,29.90,26,6,28,0.56
2013-6-23,78.3,71.7,66.8,71.6,67.9,65.0,95,88,78,30.02,29.91,25,7,25,0.00
2013-6-24,87.5,76.0,66.2,78.5,71.2,64.6,96,86,67,30.03,29.87,22,6,23,0.00
2013-6-25,88.6,77.6,70.1,77.8,72.0,66.6,93,84,68,29.92,29.73,19,6,21,0.00
2013-6-26,79.9,73.7,68.9,77.1,71.3,65.5,98,93,81,29.86,29.64,32,5,33,1.55
2013-6-27,88.6,79.7,73.1,76.7,73.1,69.5,99,82,58,29.78,29.67,17,4,21,0.00
2013-6-28,83.7,77.1,70.4,70.1,65.4,58.6,93,69,44,29.75,29.58,21,6,21,0.00
2013-6-29,73.8,68.8,64.9,67.4,64.1,62.1,96,86,75,29.65,29.55,17,4,24,0.24
2013-6-30,74.6,67.9,62.1,66.1,62.6,57.7,95,84,60,29.84,29.64,21,6,25,0.03
2013-7-1,74.5,67.4,63.1,64.6,60.7,56.6,95,80,67,29.91,29.82,19,6,21,0.13
2013-7-2,67.7,64.0,59.7,63.3,60.4,57.8,95,88,81,29.97,29.87,16,5,16,0.21
2013-7-3,78.4,67.7,61.6,67.2,61.8,58.4,100,83,52,30.03,29.94,8,2,9,0.39
2013-7-4,80.2,70.9,59.2,67.5,62.8,57.1,96,77,52,30.06,29.97,10,2,12,0.00
2013-7-5,80.1,71.5,64.4,70.0,67.0,63.2,98,87,68,30.04,29.95,13,2,16,0.00
2013-7-6,80.4,72.0,66.2,72.8,68.3,63.4,98,89,70,30.01,29.93,11,3,14,0.00
2013-7-7,86.7,75.6,65.1,75.2,69.4,62.6,96,82,66,30.01,29.92,15,4,16,0.00
2013-7-8,85.0,78.0,71.7,77.9,72.8,68.9,91,84,77,30.03,29.92,15,4,17,0.00
2013-7-9,90.5,82.2,76.4,79.8,75.3,71.5,87,80,62,29.97,29.84,12,4,12,0.00
2013-7-10,85.2,78.1,70.9,77.5,73.5,67.4,98,86,70,29.97,29.78,22,4,27,0.83
2013-7-11,79.1,72.5,64.8,67.8,62.9,60.3,89,73,56,30.00,29.90,13,3,15,0.00
2013-7-12,81.1,70.2,56.4,67.0,60.1,52.3,96,73,44,30.07,29.98,10,1,15,0.00
2013-7-13,81.3,71.8,59.5,69.0,64.5,58.1,97,79,58,30.06,29.97,12,2,13,0.00
2013-7-14,87.4,76.4,63.7,75.1,69.7,62.2,96,81,60,30.10,30.01,13,2,14,0.00
2013-7-15,87.3,79.6,71.4,77.2,73.7,69.6,96,83,66,30.18,30.08,12,2,12,0.00
2013-7-16,91.3,81.3,70.3,76.8,73.2,69.0,98,78,54,30.25,30.16,12,1,12,0.00
2013-7-17,93.0,82.5,71.1,78.6,73.7,69.7,98,77,48,30.26,30.12,5,0,6,0.00
2013-7-18,93.3,83.2,72.0,78.5,75.1,70.6,98,78,56,30.13,29.94,8,1,9,0.00
2013-7-19,91.7,84.1,76.5,77.7,75.3,72.5,88,76,61,29.95,29.78,14,5,16,0.00
2013-7-20,87.7,77.2,69.0,77.8,72.5,67.7,96,86,69,29.85,29.75,16,3,17,0.04
2013-7-21,81.1,73.6,68.9,74.6,70.9,67.7,98,92,77,29.89,29.77,11,1,11,0.04
2013-7-22,85.1,76.1,68.5,75.9,70.9,67.5,98,85,65,29.79,29.71,13,2,16,1.00
2013-7-23,85.5,78.0,68.7,75.9,70.1,62.8,96,78,55,29.84,29.68,14,4,17,0.00
2013-7-24,74.1,66.5,59.7,63.3,57.4,53.8,89,73,55,29.98,29.84,13,3,15,0.00
2013-7-25,77.4,66.7,55.9,65.2,58.2,53.1,95,76,53,30.07,29.96,15,1,18,0.00
2013-7-26,73.7,67.3,57.5,67.5,62.7,55.9,96,86,70,30.02,29.84,15,4,18,0.00
2013-7-27,70.7,65.2,57.2,66.7,57.0,50.3,92,76,55,29.93,29.85,17,5,19,0.00
2013-7-28,73.7,63.7,53.5,57.7,53.1,49.3,93,70,50,30.00,29.91,17,3,19,0.00
2013-7-29,79.2,67.0,52.6,66.3,58.6,51.4,98,77,50,30.11,29.99,9,1,10,0.00
2013-7-30,68.3,66.7,63.8,67.6,64.3,60.9,98,93,83,30.09,29.98,16,4,18,0.40
2013-7-31,78.2,71.4,67.3,73.0,69.1,65.8,99,93,81,29.99,29.90,13,2,13,0.00
2013-8-1,82.1,72.8,65.1,70.3,65.0,61.6,97,79,53,29.98,29.90,12,2,13,0.01
2013-8-2,76.8,71.6,63.5,72.5,67.7,62.3,97,88,80,29.92,29.85,14,4,15,0.00
2013-8-3,82.5,74.7,66.9,71.1,67.1,60.1,95,79,52,30.04,29.86,13,2,13,0.00
2013-8-4,78.7,68.4,57.0,63.6,59.8,55.5,97,76,53,30.12,30.03,7,1,7,0.00
2013-8-5,78.5,68.6,56.1,65.8,61.9,54.9,98,81,60,30.05,29.84,17,4,18,0.00
2013-8-6,81.4,72.7,66.5,74.9,69.7,65.3,97,91,77,29.86,29.78,10,2,11,0.00
2013-8-7,84.1,75.6,67.6,76.8,72.1,66.4,98,89,76,29.85,29.77,14,3,14,0.00
2013-8-8,78.5,73.8,69.5,74.4,71.2,67.7,97,92,86,29.89,29.80,10,1,11,0.00
2013-8-9,80.5,71.5,62.0,69.8,65.1,59.3,93,81,62,30.00,29.87,9,1,10,0.00
2013-8-10,82.8,74.5,66.5,71.9,66.5,61.4,95,78,51,30.06,29.99,12,2,14,0.00
2013-8-11,82.3,71.1,57.8,67.9,62.4,55.8,97,76,55,30.07,29.98,9,1,10,0.00
2013-8-12,82.5,71.5,62.3,74.3,67.5,60.6,98,88,71,30.02,29.83,11,2,11,0.05
2013-8-13,75.6,68.3,56.7,67.1,61.6,52.6,96,81,54,30.07,29.84,14,4,16,0.00
2013-8-14,70.3,60.7,50.6,57.1,53.4,48.7,97,78,57,30.15,30.07,13,2,13,0.00
2013-8-15,71.3,61.0,49.1,58.4,53.8,47.9,98,79,55,30.13,30.04,11,1,12,0.00
2013-8-16,73.8,64.9,57.5,60.2,57.5,55.1,93,78,56,30.10,30.04,14,2,15,0.00
2013-8-17,78.2,66.6,56.4,64.3,59.4,54.8,96,79,56,30.14,30.06,13,1,14,0.00
2013-8-18,83.1,71.0,59.4,68.2,62.8,57.3,93,77,53,30.11,30.02,8,1,10,0.00
2013-8-19,84.2,72.0,59.1,69.4,64.2,57.9,98,79,52,30.07,29.97,11,1,12,0.00
2013-8-20,86.4,72.0,59.6,70.8,65.3,58.7,99,82,52,30.06,29.98,11,1,12,0.00
2013-8-21,87.4,75.9,63.9,72.1,68.1,62.7,98,79,55,30.06,29.95,12,2,13,0.00
2013-8-22,88.0,76.8,69.8,76.0,69.9,65.8,95,80,59,30.02,29.95,22,3,22,0.00
2013-8-23,83.2,74.0,66.4,71.5,68.0,64.7,98,83,61,30.06,30.00,9,2,10,0.18
2013-8-24,86.1,73.7,61.7,71.4,66.1,60.8,100,79,53,30.16,30.05,11,2,12,0.01
2013-8-25,87.4,74.0,60.6,69.1,64.5,59.4,98,75,48,30.21,30.11,13,2,15,0.00
2013-8-26,90.4,79.3,67.2,76.8,71.9,63.5,96,79,53,30.14,29.98,13,4,15,0.00
2013-8-27,90.7,81.3,74.4,76.4,72.9,70.0,90,77,51,30.00,29.89,15,5,15,0.00
2013-8-28,92.0,82.8,74.5,75.5,71.8,67.6,88,71,53,29.93,29.87,17,5,19,0.00
2013-8-29,86.5,77.2,70.8,76.9,72.8,69.6,98,87,70,29.98,29.89,10,1,10,0.00
2013-8-30,95.6,81.8,67.5,78.9,73.2,66.5,98,78,51,29.90,29.74,14,2,16,0.00
2013-8-31,97.0,84.2,72.4,78.0,73.3,65.2,90,71,50,29.80,29.61,16,4,19,0.02
2013-9-1,83.3,75.6,69.6,74.1,71.0,68.0,96,87,69,29.75,29.66,12,3,12,0.00
2013-9-2,83.8,74.6,65.7,72.3,64.9,61.1,92,74,48,29.88,29.74,14,3,14,0.00
2013-9-3,78.0,67.1,58.1,61.9,59.0,55.5,96,77,52,30.02,29.88,11,2,12,0.00
2013-9-4,83.7,68.0,52.7,64.1,58.9,51.5,98,76,47,30.11,30.01,10,1,10,0.00
2013-9-5,86.3,71.5,56.4,66.7,61.7,54.9,98,75,45,30.14,30.06,8,1,8,0.00
2013-9-6,87.3,73.3,60.6,68.9,64.2,59.6,98,76,48,30.12,29.98,13,2,15,0.00
2013-9-7,88.6,76.2,64.1,71.1,66.7,62.1,95,75,48,29.99,29.85,17,3,18,0.01
2013-9-8,85.4,76.5,69.3,72.5,69.3,67.4,94,79,59,29.91,29.83,12,2,12,0.00
2013-9-9,95.0,81.4,69.5,76.6,72.7,67.8,97,77,49,29.89,29.82,15,4,15,0.00
2013-9-10,97.2,84.3,73.0,74.4,72.1,67.2,95,70,39,30.00,29.89,15,4,17,0.00
2013-9-11,93.7,82.5,71.8,72.0,69.1,64.1,94,67,39,30.04,29.92,17,4,18,0.00
2013-9-12,82.3,74.4,63.6,70.8,64.2,51.9,95,72,40,29.99,29.87,19,4,20,0.23
2013-9-13,71.5,62.9,53.8,58.4,51.9,45.7,94,70,42,30.08,29.97,15,4,18,0.00
2013-9-14,73.7,58.8,44.3,49.9,46.0,42.3,95,67,34,30.12,30.00,12,2,12,0.00
2013-9-15,77.1,64.5,50.6,60.8,52.3,45.8,90,67,41,30.04,29.93,17,4,21,0.00
2013-9-16,67.2,62.1,56.8,60.8,55.8,52.4,93,81,66,30.23,30.04,15,5,19,0.00
2013-9-17,74.5,62.8,50.0,58.1,54.1,48.3,96,75,49,30.23,30.04,13,3,19,0.00
2013-9-18,82.9,74.0,63.2,71.4,66.7,56.4,92,79,63,30.04,29.91,17,5,18,0.05
2013-9-19,90.0,79.3,71.1,73.3,71.0,68.5,95,77,54,29.94,29.77,21,7,21,0.01
2013-9-20,76.6,68.7,59.4,71.7,66.1,54.1,97,92,83,29.83,29.76,14,4,16,1.07
2013-9-21,70.3,60.3,52.0,56.1,52.1,49.6,93,77,49,29.87,29.79,17,4,17,0.01
2013-9-22,72.8,59.1,46.5,53.0,49.6,45.1,97,74,42,29.98,29.87,10,1,13,0.00
2013-9-23,74.9,59.6,45.6,52.4,48.1,43.9,96,70,36,30.02,29.92,16,3,18,0.00
2013-9-24,78.4,63.6,47.3,62.3,55.0,45.6,96,76,52,29.94,29.78,15,2,15,0.01
2013-9-25,82.8,69.2,58.0,64.7,60.7,56.5,97,77,46,29.84,29.77,11,1,12,0.00
2013-9-26,82.0,67.0,53.6,63.0,55.0,49.8,94,69,37,29.98,29.83,10,1,11,0.00
2013-9-27,81.2,64.7,48.8,60.5,53.4,47.3,97,71,40,30.09,29.97,16,2,23,0.00
2013-9-28,82.3,69.2,55.0,64.8,58.0,52.1,94,70,45,30.03,29.89,28,6,30,0.00
2013-9-29,74.8,64.4,51.2,62.8,54.7,48.6,95,74,42,29.98,29.90,14,3,15,0.16
2013-9-30,75.3,63.1,50.7,63.4,58.9,48.4,98,88,62,29.94,29.85,14,3,17,0.01
2013-10-1,73.4,67.8,63.0,68.1,64.7,61.1,97,90,82,29.98,29.89,15,4,17,0.00
2013-10-2,80.1,70.5,66.5,71.5,68.1,65.5,99,93,72,30.02,29.92,16,3,16,0.05
2013-10-3,83.5,73.1,66.2,72.1,67.5,62.8,97,84,64,29.93,29.81,20,6,24,0.18
2013-10-4,85.5,74.8,66.0,72.1,68.1,62.9,95,81,61,29.93,29.85,18,5,18,0.01
2013-10-5,79.8,71.3,61.6,72.9,68.8,59.9,98,93,77,29.90,29.73,18,6,24,0.00
2013-10-6,61.9,55.4,50.4,59.8,46.5,39.6,95,73,50,29.80,29.71,25,7,29,0.00
2013-10-7,68.3,53.8,44.7,50.9,47.0,43.1,96,80,48,30.08,29.77,19,4,21,0.00
2013-10-8,74.7,58.9,43.6,56.1,48.0,42.3,98,72,39,30.17,30.08,14,2,16,0.00
2013-10-9,74.8,58.7,44.2,52.5,48.0,42.5,96,71,40,30.15,30.05,16,2,16,0.00
2013-10-10,78.0,63.0,48.0,62.3,54.6,46.6,100,77,49,30.11,29.97,12,2,14,0.00
2013-10-11,78.7,66.8,56.0,61.6,56.7,53.1,92,72,47,30.00,29.88,19,5,21,0.00
2013-10-12,72.1,63.8,57.2,65.2,58.4,45.1,93,83,59,30.12,29.91,12,4,15,0.04
2013-10-13,71.1,59.3,49.6,46.3,40.3,35.1,76,53,27,30.32,30.12,12,3,14,0.00
2013-10-14,70.0,55.5,41.6,47.1,41.8,37.9,89,63,33,30.31,30.05,13,3,13,0.00
2013-10-15,64.3,61.2,56.8,62.8,56.5,46.9,95,85,68,30.05,29.81,18,6,21,0.02
2013-10-16,56.8,50.3,45.2,52.6,44.4,42.1,89,81,69,29.96,29.87,18,4,18,0.00
2013-10-17,59.5,50.9,46.5,46.2,43.7,41.3,93,78,53,29.94,29.84,19,4,21,0.02
2013-10-18,56.9,51.4,46.9,47.2,43.1,39.6,86,74,60,29.97,29.87,17,5,18,0.00
2013-10-19,55.2,47.1,39.7,42.3,38.9,35.3,95,75,48,29.93,29.86,22,6,25,0.34
2013-10-20,67.5,54.3,40.8,45.8,42.0,37.0,87,65,40,29.91,29.79,28,10,31,0.00
2013-10-21,54.7,48.6,34.8,45.6,39.9,29.4,85,72,54,30.00,29.84,21,6,23,0.00
2013-10-22,49.1,40.8,29.2,44.9,36.3,27.3,96,85,64,30.00,29.76,19,5,22,0.14
2013-10-23,43.5,39.8,36.2,36.1,33.2,28.6,94,78,57,30.07,29.86,17,5,20,0.01
2013-10-24,43.8,38.2,35.0,35.5,27.6,22.4,92,67,45,30.34,30.05,22,6,27,0.00
2013-10-25,51.5,39.6,29.1,30.7,27.6,24.5,84,64,41,30.45,30.17,15,5,16,0.00
2013-10-26,60.3,47.2,38.0,41.8,33.4,27.6,68,59,40,30.18,29.91,24,9,26,0.00
2013-10-27,57.6,43.1,29.0,36.0,30.8,26.3,95,65,36,30.08,29.98,13,2,13,0.00
2013-10-28,65.0,45.2,27.5,38.5,31.4,25.1,95,64,30,30.24,30.03,13,1,15,0.00
2013-10-29,57.3,47.1,35.2,52.2,42.2,30.4,97,83,67,30.24,30.06,13,2,15,0.15
2013-10-30,67.6,59.9,52.3,65.0,58.5,51.4,99,95,87,30.06,29.81,18,6,19,0.07
2013-10-31,65.6,60.1,48.4,62.7,58.4,46.1,97,94,85,29.81,29.26,24,10,30,1.40
2013-11-1,55.7,49.5,43.8,46.7,44.3,40.9,95,83,65,29.77,29.52,19,7,21,0.00
2013-11-2,49.0,44.5,36.0,43.6,39.1,32.8,98,82,64,30.13,29.76,21,4,21,0.01
2013-11-3,54.1,42.4,29.6,39.7,34.9,27.9,97,77,49,30.28,30.11,19,4,19,0.00
2013-11-4,57.1,49.7,42.3,45.3,41.5,36.6,81,74,62,30.20,30.10,23,10,24,0.00
2013-11-5,61.3,54.4,50.0,51.8,48.8,45.1,94,82,70,30.26,29.98,20,7,23,0.03
2013-11-6,59.1,48.6,36.3,53.8,45.9,33.3,95,91,73,30.17,29.84,26,9,29,0.30
2013-11-7,50.3,39.6,31.7,38.7,32.6,28.9,94,77,57,30.31,30.17,19,5,20,0.00
2013-11-8,52.9,42.5,30.9,35.7,32.6,27.7,93,70,46,30.34,30.03,21,6,25,0.00
2013-11-9,63.6,52.3,43.6,43.6,39.3,33.9,72,62,44,30.15,29.97,25,8,30,0.00
2013-11-10,50.4,41.8,32.5,37.3,33.1,29.9,93,72,51,30.36,30.15,18,3,18,0.00
2013-11-11,53.5,42.0,28.5,46.0,35.9,27.0,95,80,67,30.43,30.07,23,8,26,0.16
2013-11-12,31.8,27.0,22.3,27.3,20.9,17.4,93,78,61,30.70,30.42,20,5,21,0.01
2013-11-13,39.7,30.5,19.6,24.6,20.8,16.6,90,69,47,30.66,30.27,19,6,20,0.00
2013-11-14,53.0,41.7,29.5,27.9,24.8,21.1,75,53,29,30.27,30.01,26,11,29,0.00
2013-11-15,53.2,46.0,40.0,43.2,33.8,26.2,90,63,47,30.03,29.93,20,7,23,0.00
2013-11-16,62.1,55.7,46.3,60.2,52.3,43.1,98,89,76,29.93,29.57,33,14,33,0.04
2013-11-17,71.7,61.1,46.0,65.8,54.6,41.1,94,80,49,29.85,29.24,38,14,41,0.10
2013-11-18,50.3,43.7,36.1,41.7,35.2,29.0,92,73,47,30.24,29.84,22,7,25,0.00
2013-11-19,43.8,35.2,29.7,30.8,28.0,25.8,86,76,54,30.33,30.21,12,3,14,0.00
2013-11-20,46.7,37.7,27.9,39.6,32.5,25.3,90,82,70,30.23,30.05,18,7,20,0.04
2013-11-21,49.2,47.6,44.4,48.3,44.9,39.0,97,91,71,30.15,30.07,18,5,21,0.61
2013-11-22,48.6,40.3,32.0,48.0,37.8,28.5,98,91,82,30.46,30.13,22,6,22,0.04
2013-11-23,31.9,25.4,17.3,28.5,18.9,10.8,90,76,66,30.69,30.43,21,8,24,0.00
2013-11-24,26.4,19.8,13.2,15.1,10.7,5.1,82,68,41,30.75,30.44,15,3,15,0.00
2013-11-25,33.4,29.4,23.5,25.1,20.0,15.0,77,68,59,30.44,30.14,18,7,19,0.00
2013-11-26,39.4,31.2,21.4,29.5,23.4,11.9,84,73,60,30.16,30.00,22,6,24,0.00
2013-11-27,26.7,20.4,14.5,13.8,10.4,7.5,84,65,48,30.30,30.13,21,6,21,0.00
2013-11-28,39.7,28.8,16.9,24.8,18.8,11.5,81,67,49,30.48,30.21,23,6,27,0.00
2013-11-29,39.8,29.0,17.5,25.2,21.2,14.6,92,73,53,30.59,30.38,16,4,16,0.00
2013-11-30,52.3,39.9,28.7,35.0,29.9,24.1,84,68,47,30.38,30.06,18,7,18,0.00
2013-12-1,51.7,41.3,34.5,38.3,34.3,30.9,92,77,55,30.07,29.89,11,3,12,0.00
2013-12-2,47.5,39.8,32.7,43.0,36.7,30.6,95,89,81,29.89,29.66,10,3,11,0.00
2013-12-3,55.2,47.0,40.6,51.9,45.5,38.6,100,95,86,29.69,29.61,18,6,20,0.00
2013-12-4,63.4,53.4,43.2,58.4,50.8,38.5,99,91,75,29.76,29.47,26,9,26,0.00
2013-12-5,43.1,27.9,21.2,38.5,22.4,15.7,89,80,72,30.25,29.75,20,8,20,0.00
2013-12-6,22.7,20.5,14.5,18.6,13.5,8.1,88,74,70,30.55,30.22,17,7,19,0.00
2013-12-7,23.2,17.0,10.1,10.8,8.0,5.5,81,68,52,30.68,30.49,16,5,21,0.00
2013-12-8,26.0,23.1,19.5,24.8,20.3,10.4,95,89,67,30.49,29.99,17,7,17,0.00
2013-12-9,25.7,22.3,17.9,23.7,17.4,12.2,92,81,73,30.26,30.02,20,7,22,0.00
2013-12-10,30.5,20.7,11.4,18.1,13.0,8.1,87,72,54,30.32,30.18,23,6,26,0.00
2013-12-11,28.9,18.5,6.4,21.5,12.2,-0.3,91,76,60,30.63,30.27,21,6,22,0.00
2013-12-12,27.1,15.8,2.5,13.4,6.2,-2.0,84,66,48,30.63,30.26,20,6,22,0.00
2013-12-13,36.8,28.5,18.4,31.5,22.9,13.4,96,80,61,30.27,30.00,18,7,19,0.01
2013-12-14,33.7,31.0,25.1,32.9,29.6,22.5,97,94,88,30.04,29.80,21,5,21,0.19
2013-12-15,25.1,21.9,16.3,22.4,18.7,13.4,94,87,80,30.14,30.04,20,6,24,0.00
2013-12-16,27.5,22.9,18.7,26.5,21.6,17.0,100,94,92,30.09,29.99,17,4,19,0.00
2013-12-17,31.8,25.8,21.2,29.5,23.3,16.7,96,90,74,30.20,30.07,18,6,21,0.02
2013-12-18,40.9,30.5,18.4,34.5,21.7,13.0,81,70,55,30.23,29.91,27,10,28,0.16
2013-12-19,48.6,43.8,39.5,45.9,39.9,34.6,94,86,78,29.92,29.76,22,10,25,0.02
2013-12-20,62.8,51.0,34.1,58.2,48.4,32.3,96,91,85,29.79,29.63,26,9,30,0.22
2013-12-21,35.3,33.2,31.6,34.5,32.3,30.6,97,96,94,29.80,29.44,17,5,21,1.41
2013-12-22,35.0,32.3,25.6,34.2,30.4,22.0,97,93,86,30.18,29.54,23,8,25,0.02
2013-12-23,26.1,19.8,9.2,23.6,15.4,3.1,90,83,74,30.52,30.18,20,8,22,0.00
2013-12-24,20.1,13.2,4.9,14.6,6.3,-1.1,81,73,65,30.61,30.36,18,7,20,0.00
2013-12-25,32.2,27.4,20.1,28.9,21.9,13.5,89,80,73,30.37,30.19,22,8,22,0.00
2013-12-26,40.9,32.8,24.3,29.8,26.4,22.0,91,78,54,30.36,30.20,19,7,20,0.00
2013-12-27,48.7,38.4,30.2,34.9,31.2,26.4,87,76,56,30.33,30.17,17,7,18,0.00
2013-12-28,52.9,42.3,36.2,39.1,33.6,30.9,82,72,51,30.18,29.87,18,8,19,0.00
2013-12-29,40.2,29.1,13.8,32.1,24.6,9.7,93,84,70,30.20,29.78,26,10,29,0.00
2013-12-30,21.7,13.4,4.9,13.7,6.7,1.2,85,74,60,30.34,30.20,16,4,19,0.00
2013-12-31,34.5,27.6,19.1,26.1,19.3,13.4,85,71,61,30.39,30.14,23,6,25,0.00
2014-1-1,42.0,32.7,21.2,32.5,27.6,19.4,94,82,66,30.16,30.00,15,6,17,0.00
2014-1-2,21.1,14.6,4.5,19.2,12.2,1.8,93,90,88,30.43,29.98,24,8,24,0.00